Regional Weather Roundup
Issued by NWS New Orleans/Baton Rouge, LA

Home | Current Version | Previous Version | Text Only | Print | Product List | Glossary On
Versions: 1 2 3 4 5 6 7 8 9 10 11 12 13 14 15 16 17 18 19 20 21 22 23 24 25 26 27 28 29 30 31 32 33 34 35 36 37 38 39 40 41 42 43 44 45 46 47 48 49 50
699
ASUS44 KLIX 190011
RWRLIX
NEW ORLEANS REGIONAL WEATHER ROUNDUP
NATIONAL WEATHER SERVICE NEW ORLEANS LA
700 PM CDT SAT APR 18 2015

NOTE: "FAIR" INDICATES FEW OR NO CLOUDS BELOW 12,000 FEET WITH NO
      SIGNIFICANT WEATHER AND/OR OBSTRUCTIONS TO VISIBILITY.
      SKY/WX - SKY CONDITION AND SIGNIFICANT WEATHER.
      TMP - AIR TEMPERATURE.     DP    - DEWPOINT TEMPERATURE.
      RH  - RELATIVE HUMIDITY.   PRES  - PRESSURE.
      HI  - HEAT INDEX.          WCI   - WIND CHILL INDEX.

*  THESE STATIONS ARE NOT NWS OR FAA STATIONS AND ARE NOT UNDER
   NWS QUALITY CONTROL.

LAZ038-040-048-061>063-065>067-069-190100-
SOUTHEAST LOUISIANA

CITY           SKY/WX    TMP DP  RH WIND       PRES   REMARKS
N.O. AUDUBON     N/A     72  72 100 MISG        N/A
6HR MIN TEMP:  72; 6HR MAX TEMP:  79; 6HR PCP:  0.05;

N.O. INTL ARPT LGT RAIN  73  69  87 SE9       29.85S
6HR MIN TEMP:  73; 6HR MAX TEMP:  79; 6HR PCP:  0.12;

N.O. LAKEFRONT LGT RAIN  75  70  84 S9        29.87S
6HR MIN TEMP:  75; 6HR MAX TEMP:  81; 6HR PCP:  0.07;

SLIDELL        LGT RAIN  73  72  96 S9        29.85F
6HR MIN TEMP:  73; 6HR MAX TEMP:  79; 6HR PCP:  0.15;

BATON ROUGE    CLOUDY    74  68  81 S14       29.81F
6HR MIN TEMP:  74; 6HR MAX TEMP:  80; 6HR PCP: TRACE;

BOOTHVILLE     LGT RAIN  72  69  90 SE17G24   29.86S
6HR MIN TEMP:  70; 6HR MAX TEMP:  73; 6HR PCP:  0.13;

BELLE CHASSE   LGT RAIN  72  68  87 S7        29.86S
6HR MIN TEMP:  72; 6HR MAX TEMP:  77;

BOGALUSA*        N/A     75  69  80 S10       29.86R
6HR MIN TEMP:  75; 6HR MAX TEMP:  82; 6HR PCP:  0.01;

GALLIANO*      DRIZZLE   71  70  96 SE5       29.86S
6HR MIN TEMP:  71; 6HR MAX TEMP:  77; 6HR PCP:  0.02;

NEW ROADS*       N/A     73  68  83 S8        29.81R
6HR MIN TEMP:  73; 6HR MAX TEMP:  77;

GONZALES*      LGT RAIN  73  73 100 SE6       29.82F
6HR MIN TEMP:  73; 6HR MAX TEMP:  78; 6HR PCP:  0.04;

HAMMOND*       LGT RAIN  73  70  88 S7        29.86R
HOUMA*         MOCLDY    72  72 100 SE3       29.86R
PORT FOURCHON* MOCLDY    73  70  88 S13G21    29.90R

$$

MSZ070-080>082-190100-
SOUTHERN MISSISSIPPI

CITY           SKY/WX    TMP DP  RH WIND       PRES   REMARKS
MCCOMB         CLOUDY    73  69  87 S13       29.82S
6HR MIN TEMP:  73; 6HR MAX TEMP:  79; 6HR PCP: TRACE;

GULFPORT       LGT RAIN  73  70  90 S5        29.86S
6HR MIN TEMP:  73; 6HR MAX TEMP:  76; 6HR PCP:  0.04;

BILOXI         LGT RAIN  74  73  97 S7        29.86S
6HR MIN TEMP:  74; 6HR MAX TEMP:  76; 6HR PCP:  0.05;

PASCAGOULA     LGT RAIN  73  70  90 S5        29.87S
6HR MIN TEMP:  73; 6HR MAX TEMP:  76; 6HR PCP: TRACE;

STENNIS ARPT*  LGT RAIN  72  68  88 MISG      29.86F

$$

COASTAL OBSERVATIONS
LAKE AND NEARSHORE STATIONS

STATION/POSITION TIME  TEMP    WIND        PRES    WAVE
                       AIR SEA DIR/SP/G            HT/PER
                 (UTC) (F)     (DEG/KT/KT) (MB)    (FT/S)
PASCAGOULA       2300   75     170/  6/ 10 1011.0
WAVELAND YACHT   2300   74 73  180/  5/  6 1011.4
GRAND ISLE       2300   73 76  160/  4/  8 1010.8
SOUTHWEST PASS   2300   71 63  160/ 17/ 22 1011.7
NEW CANAL        2300   73     150/  4/  6 1011.2
SHELL BEACH      2300   73 76  150/  8/  9 1010.6

OFFSHORE STATIONS

STATION/POSITION TIME  TEMP    WIND        PRES    WAVE
                       AIR SEA DIR/SP/G            HT/PER
                 (UTC) (F)     (DEG/KT/KT) (MB)    (FT/S)
64 S DAUPHIN ISL 2350   74 75  180/ 12/ 14 1012.5    2/ 4

$$




USA.gov is the U.S. government's official web portal to all federal, state and local government web resources and services.